CAPE
0 0 0 0 0 0 0 0 0 0 0 0 0 0 0 13 8 10 155 395 487 555 569 586 563 540 581 712 722 696 666 600 602 558 525 528 530 565 552 540 495 486 563 606 625 649 551 407 369 362 338 194 232 240 234 261 262 256 273 251 208 320 310 204 219 324 399 374 388 551 684 857 982 1067 1239 1332 1411 1454 1276 1692 1723 1693 1756 1712 1822
0 0 0 0 0 0 0 0 0 0 0 0 0 0 0 0 0 24 84 286 531 607 660 656 647 666 716 765 790 751 681 626 519 527 458 392 400 398 394 468 513 546 508 491 571 587 539 334 307 364 329 211 165 161 160 144 184 167 174 178 203 268 318 266 251 362 354 418 308 341 644 648 915 1162 1321 1362 1398 1523 1576 1690 1603 1385 1544 1578 1668
0 0 0 0 0 0 0 0 0 0 0 0 0 0 0 0 1 22 117 226 427 524 640 760 831 879 938 958 919 838 742 649 537 449 428 346 195 310 317 317 356 382 444 499 524 549 506 274 316 292 222 156 135 128 131 119 134 136 134 150 162 212 282 222 340 362 356 412 441 352 273 475 547 614 1062 1270 1382 1672 1692 1648 1617 1521 1353 1497 1615
0 0 0 0 0 0 0 0 0 0 0 0 0 0 0 0 8 44 160 299 447 590 697 754 830 944 1010 1017 981 897 706 684 524 451 364 270 229 182 174 316 349 357 351 393 407 399 297 308 271 341 264 195 134 161 161 150 137 130 133 136 149 176 253 247 338 343 331 351 454 327 342 336 674 740 948 1192 1383 1380 1470 1647 1340 1299 1377 1260 1372
0 0 0 0 0 0 0 0 0 0 0 0 0 2 3 2 24 160 210 285 415 590 786 916 957 1010 1080 1118 1064 898 803 729 578 427 257 268 219 166 194 298 337 390 358 330 259 329 236 218 262 316 390 292 221 192 182 172 140 139 114 118 113 130 180 218 282 348 327 269 341 322 368 357 551 806 890 1030 1066 1096 1035 1194 1468 1420 1286 1214 1220
0 0 0 0 0 0 0 0 0 0 0 4 63 22 25 24 30 43 198 313 449 624 771 904 1066 1059 1126 1133 988 887 870 722 562 452 378 106 130 148 115 156 314 186 246 244 206 168 265 288 312 294 374 227 296 272 215 173 162 145 122 100 86 102 114 140 164 224 276 266 270 252 266 313 368 546 668 1052 1264 1193 982 903 861 872 891 1142 1135
0 0 0 0 0 0 0 0 0 0 0 0 372 345 82 125 280 284 167 289 404 594 764 823 897 972 1068 1081 1060 975 750 654 580 507 318 32 22 58 113 147 177 218 174 234 239 222 259 266 308 270 290 314 297 276 268 216 151 139 122 82 69 66 91 81 120 106 164 211 226 228 279 302 407 433 425 598 941 1106 1130 997 792 793 587 830 1002
0 0 0 0 0 0 0 0 0 0 1 15 274 436 350 126 372 456 448 262 337 524 634 628 590 687 817 989 982 931 794 664 644 525 226 14 4 2 6 8 64 86 149 202 106 310 268 167 99 153 316 339 286 282 284 232 177 158 130 113 72 64 57 69 93 88 86 77 100 161 200 292 254 266 222 208 296 313 454 712 808 828 692 524 521
0 0 0 0 0 0 0 0 0 0 8 24 54 114 11 0 437 559 577 531 457 518 499 472 483 538 653 808 858 803 666 597 644 484 164 20 5 0 2 3 5 8 8 38 115 214 218 266 249 231 291 280 166 174 177 152 202 159 156 135 110 92 80 72 68 73 85 85 71 99 146 177 243 271 102 132 235 506 489 270 397 566 623 490 478
0 0 0 0 0 0 0 0 0 0 0 60 97 64 10 6 46 476 639 627 503 396 431 532 622 629 660 696 727 692 577 632 661 521 260 52 12 6 2 2 3 4 11 11 19 31 129 237 291 259 227 142 70 14 57 93 92 125 230 176 150 114 88 68 80 85 81 81 44 66 95 108 213 241 206 180 401 438 264 138 212 370 251 142 182
0 0 0 0 0 0 0 0 0 0 2 19 38 31 25 36 67 272 570 595 471 358 508 494 487 553 586 620 719 688 591 613 501 458 249 68 16 2 1 0 0 2 4 4 11 18 37 138 246 228 204 202 96 0 0 0 58 74 110 146 125 148 114 71 73 94 104 74 66 84 78 111 218 282 252 336 296 256 319 277 255 278 166 224 426
0 0 0 0 0 0 0 0 0 0 0 3 6 1 6 36 101 439 529 492 427 433 416 446 448 500 569 688 826 738 580 426 311 358 186 40 0 0 0 1 3 4 38 18 8 29 42 91 195 312 217 154 188 97 0 0 0 0 67 109 122 100 89 124 81 106 94 74 78 76 80 89 182 277 252 234 257 158 228 186 136 184 193 176 195
0 0 0 0 0 0 0 0 0 0 0 0 0 0 2 63 171 431 484 462 400 357 307 276 334 424 539 674 819 742 541 370 302 288 109 0 0 0 0 18 31 28 20 154 69 2 10 50 106 172 151 70 179 163 190 79 0 0 0 28 64 87 84 64 50 89 72 89 89 109 129 138 191 184 207 240 351 242 127 113 102 119 168 190 343
0 0 0 0 0 0 0 0 0 0 0 0 0 0 11 102 322 452 411 292 176 134 159 173 268 399 581 762 772 582 545 349 165 174 60 0 16 0 18 8 15 21 10 26 129 86 187 263 304 324 334 258 172 127 112 148 147 49 28 2 1 7 27 40 35 32 74 81 98 86 83 120 154 198 276 272 269 278 174 118 113 111 266 275 403
0 0 0 0 0 0 0 0 0 0 0 0 0 1 20 93 429 520 441 306 210 146 109 166 278 596 743 781 622 576 543 188 4 168 84 10 35 1 4 0 4 6 4 56 193 165 246 304 308 256 165 280 288 260 165 175 208 121 55 4 0 0 1 5 14 26 35 60 82 67 74 100 147 245 352 353 228 268 187 286 256 237 287 174 186
0 0 0 0 0 0 0 0 0 0 0 0 0 3 26 261 426 500 498 316 146 36 49 147 354 516 604 596 512 439 405 198 6 212 132 9 8 22 6 0 0 0 15 78 200 151 132 76 55 30 1 4 28 19 10 81 160 111 49 42 34 4 0 0 0 5 35 36 36 42 84 116 109 258 286 300 304 341 209 260 126 193 140 97 170
0 0 0 0 0 0 0 0 0 0 0 0 0 8 137 362 396 440 413 296 105 36 38 65 237 423 608 712 595 463 375 280 202 344 213 3 39 17 2 0 0 0 1 13 12 0 2 4 1 3 9 7 31 36 36 76 111 126 135 95 73 44 2 0 0 4 0 0 43 60 76 90 102 220 276 242 148 152 311 164 174 200 179 192 256
0 0 0 0 0 0 0 0 0 0 0 0 0 38 134 249 282 403 350 206 131 170 32 114 346 502 683 622 525 462 465 367 328 531 322 75 71 8 6 11 0 0 0 1 17 2 0 0 6 4 12 18 24 60 79 152 240 260 218 161 136 49 2 6 3 17 27 49 69 67 83 99 178 252 242 175 114 146 449 334 432 333 283 337 319
0 0 0 0 0 0 202 220 0 0 0 0 10 147 286 384 540 201 19 3 207 291 178 219 240 251 297 420 462 566 562 384 343 452 308 95 98 63 13 9 14 5 0 0 8 8 10 2 6 10 4 10 26 40 82 88 114 197 226 190 157 111 54 32 12 31 57 68 57 48 72 154 220 241 202 155 173 193 380 520 680 324 337 360 426
9 320 352 168 0 331 364 376 199 41 5 3 40 170 414 546 116 3 2 6 56 96 28 18 19 24 39 128 320 470 467 397 401 373 240 206 150 110 63 31 25 22 6 0 0 2 0 0 0 1 9 4 26 14 14 26 8 7 104 167 154 112 124 76 49 16 84 70 66 85 152 236 263 216 198 203 209 212 412 446 512 511 450 486 416
64 362 380 394 386 371 400 454 136 18 6 28 130 507 361 50 8 3 0 0 0 5 6 5 13 2 1 6 60 287 495 486 539 306 286 277 309 170 148 98 86 48 13 0 14 16 4 0 0 0 8 4 3 4 0 13 20 18 30 16 20 48 2 123 176 149 99 56 26 139 210 227 227 196 205 213 220 232 233 250 414 494 547 454 336
348 308 275 295 299 312 465 486 82 59 142 239 180 86 7 0 1 2 0 0 0 0 0 0 0 0 0 0 11 88 264 437 462 406 330 335 390 246 202 162 142 107 62 32 25 40 28 0 0 0 0 0 0 0 2 3 3 14 26 19 8 13 3 125 100 115 128 94 152 221 227 223 195 157 180 198 185 228 407 590 629 596 542 498 523
105 108 278 315 332 409 590 467 260 143 122 102 28 40 4 0 0 0 0 0 0 0 0 0 0 0 0 0 0 16 66 214 307 368 259 271 494 450 254 213 197 147 122 84 62 43 55 39 6 0 0 0 4 4 8 11 1 2 0 2 21 10 0 4 20 62 45 54 93 96 129 100 97 151 183 121 197 270 528 608 466 419 416 402 526
46 284 382 434 524 658 684 304 72 33 25 8 2 0 0 0 2 0 0 0 0 0 0 0 0 0 0 0 0 1 8 50 95 205 218 266 366 591 480 344 242 220 177 141 136 104 87 77 44 2 0 0 0 0 0 0 0 0 0 2 4 4 3 5 6 20 26 34 38 56 37 23 50 101 184 236 197 250 337 334 250 224 233 252 344
391 413 352 356 443 690 640 164 0 0 0 0 0 0 0 0 10 0 0 0 0 0 0 0 0 0 0 0 0 0 1 29 154 112 60 1 0 361 573 560 380 245 176 129 131 144 123 105 75 28 4 0 0 0 0 0 0 0 0 0 0 3 12 24 20 46 10 2 9 12 24 27 35 0 127 198 78 63 83 54 46 94 116 91 201
383 417 201 187 312 626 416 0 0 0 0 0 0 0 0 0 0 0 0 0 0 0 0 0 0 0 0 0 0 0 0 38 89 11 0 0 0 0 160 462 446 354 262 150 123 141 123 120 106 92 63 48 38 22 3 0 0 0 0 2 1 8 10 8 9 38 35 4 16 38 47 48 64 42 16 26 34 10 19 60 85 154 234 209 153
324 238 144 168 354 504 341 1 11 2 0 0 0 0 0 0 0 0 0 0 0 0 0 0 0 0 0 0 0 0 0 29 15 0 0 0 0 0 0 4 118 274 320 305 250 180 144 124 118 108 86 78 82 73 51 14 3 0 0 0 0 1 14 38 26 28 26 46 32 44 74 50 2 10 14 30 33 44 34 44 87 290 338 424 249
188 140 204 348 502 494 322 686 550 3 1 0 0 0 0 0 0 0 0 0 0 0 0 0 0 0 0 0 0 0 0 0 0 0 0 0 0 0 0 0 1 0 0 88 179 166 102 89 42 62 66 64 61 65 66 70 34 13 3 0 0 2 6 0 13 30 22 18 38 50 52 30 22 25 20 20 20 23 31 26 30 93 169 362 469
592 581 581 670 720 488 177 248 734 412 282 0 0 0 0 0 0 0 0 0 0 0 0 0 0 0 0 0 0 0 0 0 0 0 1 0 0 0 0 0 0 0 0 0 1 0 20 22 29 40 52 65 67 67 76 79 85 56 33 8 2 0 0 1 0 0 1 6 10 0 2 16 28 6 7 25 19 29 25 43 68 146 136 166 145
7 8 24 318 545 147 370 14 0 6 0 0 0 0 406 0 0 0 0 0 0 0 0 0 0 0 0 0 1 0 0 0 0 0 0 0 0 0 0 0 0 0 0 0 0 1 12 7 4 6 18 39 44 45 48 48 59 81 80 52 38 27 6 0 1 2 0 0 5 8 8 10 4 5 28 10 6 20 10 13 8 16 12 103 103
159 138 118 49 202 219 102 50 0 0 0 0 0 21 14 0 0 0 0 0 0 0 0 0 0 0 1 0 0 0 0 0 15 21 2 0 0 0 0 0 0 0 0 0 0 0 0 0 0 0 0 4 6 8 14 9 22 57 77 75 64 45 23 10 1 0 0 0 1 4 5 4 1 1 6 10 4 1 0 1 5 6 4 1 8
98 85 16 0 119 704 262 35 45 0 0 0 0 3 0 2 3 0 0 0 0 0 0 0 0 0 0 0 0 0 0 0 4 20 25 13 0 0 0 0 0 0 0 0 0 0 0 0 0 0 0 0 0 3 1 9 4 45 67 92 82 56 41 29 2 9 2 2 6 8 4 2 2 5 5 5 6 4 2 1 2 2 0 0 4
439 490 522 546 535 472 983 525 246 2 15 5 2 10 0 18 30 34 0 0 0 0 0 0 0 0 0 0 0 0 0 0 0 7 21 28 8 0 0 0 0 0 0 0 0 0 0 0 0 0 0 13 8 1 0 0 2 29 60 74 74 59 57 48 34 26 13 1 2 12 17 2 1 0 1 2 3 6 4 4 4 24 21 18 8
338 506 591 591 666 642 498 209 323 273 17 0 0 6 102 40 40 0 0 0 0 0 0 0 0 0 0 0 0 0 0 0 0 0 18 26 22 0 0 0 0 0 0 0 0 0 0 0 0 0 0 0 0 1 0 0 0 13 20 40 26 22 23 70 69 57 52 56 62 47 37 24 0 12 10 9 7 3 5 6 5 7 38 32 12
0 218 478 532 454 506 410 667 525 203 0 11 71 135 106 57 2 0 0 1 1 1 1 0 0 0 0 0 0 0 0 0 0 0 0 12 17 0 0 0 0 0 0 2 2 2 1 1 0 1 1 0 0 1 0 0 0 0 22 24 18 18 23 43 58 103 85 72 75 72 63 47 50 44 30 25 18 13 8 5 10 21 52 62 44
0 0 260 357 335 28 153 430 405 0 0 88 15 21 7 0 0 2 2 2 2 1 0 0 0 0 0 0 0 0 0 0 0 0 0 0 3 1 1 2 3 2 2 2 2 1 1 1 0 0 0 0 0 0 0 0 0 0 7 16 10 52 74 20 107 105 99 99 83 82 82 70 66 56 52 45 29 22 22 19 19 29 54 80 67
133 0 0 2 224 242 88 0 0 0 0 110 125 47 12 2 3 2 2 2 2 2 0 0 0 0 0 0 0 0 0 0 0 0 0 0 0 2 3 3 2 1 1 1 0 0 0 0 0 0 0 0 0 0 0 0 0 0 14 46 72 99 106 102 96 115 125 122 96 84 98 111 126 101 78 68 41 40 32 20 22 26 36 48 89
184 108 14 4 0 60 10 5 19 14 93 34 1 10 6 2 3 4 4 3 3 2 0 0 0 0 1 1 2 2 0 0 0 0 0 0 0 1 1 2 1 1 0 0 1 0 0 0 0 0 0 0 0 0 0 0 0 0 24 29 0 32 50 110 136 132 138 125 127 116 107 97 111 78 69 60 68 71 80 62 36 40 44 44 51
0 0 0 0 0 0 16 93 84 38 33 82 81 45 5 2 2 2 3 4 4 2 1 0 0 1 1 1 1 2 0 1 1 2 3 2 2 1 1 0 1 1 0 0 0 0 0 0 0 0 0 0 0 0 0 0 0 0 0 0 0 0 0 0 0 0 30 71 111 150 145 135 86 61 0 50 64 124 128 108 76 55 36 40 42
2 151 86 0 0 8 91 105 71 52 84 0 37 3 3 3 2 3 3 4 3 3 1 1 1 1 1 0 0 0 2 2 2 1 2 3 2 1 0 0 0 1 1 0 1 0 0 0 0 0 1 0 0 0 0 0 0 0 0 0 0 0 0 0 0 0 0 58 84 123 138 180 146 106 14 79 97 118 142 140 117 93 63 55 50
28 53 187 178 90 116 107 92 2 1 45 0 1 2 4 5 5 6 4 4 3 3 2 1 1 0 0 0 0 0 2 2 2 2 3 4 3 2 1 1 2 1 1 0 0 0 0 0 0 1 3 7 8 4 0 5 25 14 0 0 0 0 0 0 0 0 0 24 56 80 75 68 1 0 50 48 50 23 136 164 176 180 163 116 88
94 132 28 124 132 118 88 40 5 13 47 4 4 4 1 2 3 4 6 5 6 3 1 1 1 0 1 2 1 3 3 3 4 4 2 4 4 3 2 2 2 2 1 0 0 0 0 0 0 0 0 1 6 8 6 3 12 27 26 29 28 31 30 8 0 0 16 36 40 47 48 33 0 0 1 1 0 60 52 75 82 86 120 150 162
76 59 88 99 171 155 45 13 59 51 36 34 30 3 6 1 0 1 3 6 6 3 2 1 1 2 1 0 2 3 4 6 6 8 8 8 10 8 5 4 3 6 6 3 2 0 0 1 1 0 0 0 0 0 2 4 8 7 6 5 11 34 27 40 47 48 40 17 0 0 31 18 0 0 0 1 1 0 0 0 22 64 82 90 82
128 158 175 138 1 43 43 32 38 36 25 17 2 2 1 1 1 1 0 2 2 3 2 2 2 2 1 0 0 1 5 8 12 15 14 14 14 15 15 17 19 20 14 10 8 15 14 10 4 0 0 0 2 0 0 1 6 8 5 7 6 8 14 33 42 49 51 51 46 20 27 8 0 0 0 0 1 2 1 1 0 22 64 87 78
108 104 96 106 35 28 27 26 19 4 1 1 1 1 4 2 1 1 1 0 3 2 1 2 1 1 0 1 0 0 3 8 9 12 16 18 20 16 14 15 14 10 6 10 20 21 23 19 17 8 0 0 0 0 0 4 4 4 12 4 16 12 8 8 8 6 22 28 19 4 2 3 7 1 2 0 18 32 30 2 2 1 64 14 0
38 80 47 24 8 0 0 0 0 0 0 0 0 0 1 1 2 3 3 2 2 1 1 0 0 0 0 0 0 0 0 1 7 13 5 14 8 7 7 8 8 8 6 6 5 9 10 10 4 3 2 1 1 0 0 2 2 6 10 11 10 15 18 22 25 18 5 7 8 7 2 1 4 0 3 1 3 0 12 15 5 17 8 24 0
2 1 0 0 0 0 0 0 0 0 0 0 0 0 0 0 2 4 6 4 4 2 0 0 0 0 0 0 0 0 0 0 0 0 2 4 12 6 6 8 12 2 2 3 3 10 8 2 0 0 0 3 2 0 0 0 2 1 1 3 8 10 8 8 6 3 2 2 3 1 2 2 4 6 4 2 0 0 0 8 1 2 4 4 1
0 0 0 0 0 0 0 0 0 0 0 0 0 0 0 0 0 1 2 2 1 0 0 0 0 0 0 0 0 0 0 0 0 1 0 0 1 2 3 3 2 1 0 0 0 0 0 0 1 2 2 1 1 0 0 0 1 0 2 0 1 2 4 2 1 0 0 0 1 3 4 2 2 3 3 3 1 0 6 2 0 2 6 6 5
0 0 0 0 0 0 0 0 0 0 0 0 0 0 0 0 0 0 0 0 0 0 0 0 0 0 0 0 0 0 0 0 0 0 0 0 0 0 2 5 7 0 0 0 0 0 0 0 0 0 1 2 0 0 0 1 0 0 2 0 1 0 0 0 0 0 0 0 0 2 3 4 3 3 4 2 1 2 4 8 10 5 3 2 1
0 0 0 0 0 0 0 0 0 0 0 0 0 0 0 0 0 0 0 0 0 0 0 0 0 0 0 0 0 0 0 0 0 0 0 0 0 0 0 1 2 0 0 0 0 0 0 0 0 0 0 0 3 4 0 0 0 0 1 1 0 0 0 0 0 0 0 2 4 4 4 5 7 4 3 4 5 4 6 4 9 9 4 4 4
0 0 0 0 0 0 0 0 0 0 0 0 0 0 0 0 0 0 0 0 0 0 0 0 0 0 0 0 0 0 0 0 0 0 0 0 0 0 0 0 0 0 0 0 0 0 0 0 0 0 0 0 0 1 2 2 0 0 0 0 0 0 0 0 0 0 0 0 1 2 2 5 3 3 4 9 8 8 6 4 5 6 5 1 4
Wind_Speed
nan nan nan nan nan nan nan nan nan nan nan nan nan nan nan nan nan nan 34 34 34 33 32 31 31 32 31 31 30 29 30 29 31 31 30 32 34 34 33 32 31 32 32 31 32 31 31 32 29 30 34 32 34 34 34 34 36 36 36 35 36 37 37 36 31 26 31 32 30 30 32 29 29 30 33 36 37 38 36 36 36 37 37 36 38
nan nan nan nan nan nan nan nan nan nan nan nan nan nan nan nan nan nan nan 33 33 32 31 30 30 30 30 29 28 29 29 28 29 31 28 28 30 34 32 31 30 29 29 28 29 30 30 28 28 30 35 32 32 32 32 32 34 34 35 36 37 36 37 36 32 28 28 33 29 30 31 30 25 31 30 32 33 35 34 34 33 32 30 32 32
nan nan nan nan nan nan nan nan nan nan nan nan nan nan nan nan nan nan 32 32 32 31 29 29 29 29 29 29 27 26 26 26 28 30 27 23 24 27 28 28 28 27 26 27 27 28 27 26 28 30 36 32 30 31 32 31 34 34 34 37 35 35 35 34 34 31 29 32 32 29 27 26 22 24 28 29 30 31 29 29 29 28 28 27 27
nan nan nan nan nan nan nan nan nan nan nan nan nan nan nan nan nan nan 31 31 29 30 31 28 28 29 27 25 24 23 23 24 25 26 24 21 22 23 25 26 27 26 25 26 27 28 26 26 28 30 33 31 32 35 36 35 35 35 34 36 35 34 35 35 33 34 35 34 34 29 29 26 27 28 30 31 29 29 27 29 29 28 28 28 27
nan nan nan nan nan nan nan nan nan nan nan nan nan nan nan nan nan 29 29 28 27 27 28 29 28 27 25 23 21 22 22 22 24 24 24 24 23 24 24 25 26 24 24 25 25 26 26 26 27 29 33 34 33 34 35 34 36 36 34 36 37 36 37 36 35 36 37 34 35 35 33 29 28 29 30 29 30 28 29 27 27 27 27 27 29
nan nan nan nan nan nan nan nan nan nan nan nan nan nan nan nan nan nan 28 27 27 27 28 29 30 27 25 23 23 21 20 22 23 24 26 26 26 27 27 27 26 25 24 23 24 24 26 27 29 29 29 30 30 32 31 30 35 36 33 35 nan 37 35 35 37 38 38 35 36 36 35 30 30 30 31 30 31 30 28 27 28 27 27 28 28
nan nan nan nan nan nan nan nan nan nan nan nan 33 31 nan 24 24 24 27 28 27 27 28 30 32 31 27 23 21 20 19 21 22 21 24 nan nan nan 25 27 27 26 24 23 22 23 25 28 28 26 26 28 29 29 33 35 36 34 33 nan nan nan nan nan 35 36 38 38 39 37 35 33 31 28 31 31 31 30 27 27 25 27 29 29 27
nan nan nan nan nan nan nan nan nan nan nan nan 32 29 25 24 24 24 26 26 28 29 28 29 29 30 27 24 22 22 21 20 21 20 20 nan nan nan nan nan nan nan 25 25 24 25 26 27 nan 25 29 29 28 31 33 35 37 34 36 38 nan nan nan nan nan nan nan nan 39 39 36 33 33 31 36 31 28 28 28 28 25 27 28 30 27
nan nan nan nan nan nan nan nan nan nan nan nan nan 28 nan nan 24 24 26 27 29 30 29 28 28 27 25 23 23 25 23 20 20 20 19 nan nan nan nan nan nan nan nan nan 24 23 23 25 25 23 24 24 25 26 30 33 35 33 35 38 38 nan nan nan nan nan nan nan nan nan 40 37 33 31 29 27 23 25 31 30 27 28 31 29 26
nan nan nan nan nan nan nan nan nan nan nan nan nan nan nan nan nan 25 25 27 28 28 28 27 27 27 26 24 23 24 23 21 17 15 17 nan nan nan nan nan nan nan nan nan nan nan 22 23 22 18 18 20 nan nan nan nan nan 29 34 36 36 38 nan nan nan nan nan nan nan nan nan 36 35 32 27 24 27 31 36 34 28 28 32 26 24
nan nan nan nan nan nan nan nan nan nan nan nan nan nan nan nan nan 25 25 25 26 27 28 27 26 27 28 26 23 22 23 22 15 14 15 nan nan nan nan nan nan nan nan nan nan nan nan 21 23 21 19 18 nan nan nan nan nan nan 27 32 34 36 37 nan nan nan 39 nan nan nan nan 37 36 36 32 31 32 30 32 34 32 32 29 27 23
nan nan nan nan nan nan nan nan nan nan nan nan nan nan nan nan 26 26 26 24 24 26 26 26 26 26 27 26 25 23 21 18 14 15 15 nan nan nan nan nan nan nan nan nan nan nan nan nan 24 26 24 22 22 nan nan nan nan nan nan 29 31 32 nan 34 nan 33 nan nan nan nan nan nan 37 37 37 36 35 31 32 34 32 29 28 25 23
nan nan nan nan nan nan nan nan nan nan nan nan nan nan nan nan 26 26 25 25 24 24 25 25 23 24 25 25 24 22 19 15 14 17 17 nan nan nan nan nan nan nan nan 19 nan nan nan nan 24 25 27 nan 23 24 25 nan nan nan nan nan nan nan nan nan nan nan nan nan nan 42 41 41 39 38 38 41 44 37 34 33 31 29 27 25 24
nan nan nan nan nan nan nan nan nan nan nan nan nan nan nan 28 26 26 26 25 24 23 24 23 23 23 24 24 22 19 17 14 12 17 nan nan nan nan nan nan nan nan nan nan 26 nan 21 21 22 24 26 25 25 24 24 25 31 nan nan nan nan nan nan nan nan nan nan nan nan nan nan 44 40 38 42 48 47 41 37 32 31 30 28 25 28
nan nan nan nan nan nan nan nan nan nan nan nan nan nan nan nan 26 25 26 24 22 22 23 22 22 23 22 22 21 17 16 14 nan 14 nan nan nan nan nan nan nan nan nan nan 28 30 32 33 30 26 24 23 23 21 21 24 28 31 nan nan nan nan nan nan nan nan nan nan nan nan nan nan 38 39 46 47 44 42 40 37 34 31 33 37 37
nan nan nan nan nan nan nan nan nan nan nan nan nan nan nan 29 26 25 25 23 22 nan nan 26 23 22 21 21 21 17 15 15 nan 14 14 nan nan nan nan nan nan nan nan nan 27 27 28 nan nan nan nan nan nan nan nan nan 24 27 nan nan nan nan nan nan nan nan nan nan nan nan nan 40 38 40 45 47 46 46 48 47 43 38 36 nan 33
nan nan nan nan nan nan nan nan nan nan nan nan nan nan 30 27 26 28 24 22 20 nan nan nan 22 21 21 22 22 20 17 17 18 14 12 nan nan nan nan nan nan nan nan nan nan nan nan nan nan nan nan nan nan nan nan nan 25 28 32 nan nan nan nan nan nan nan nan nan nan nan nan nan 38 39 42 42 43 45 48 44 37 37 36 36 35
nan nan nan nan nan nan nan nan nan nan nan nan nan nan 29 29 27 27 24 20 17 19 nan 21 19 21 22 21 23 22 20 19 18 15 12 nan nan nan nan nan nan nan nan nan nan nan nan nan nan nan nan nan nan nan nan 19 23 26 28 33 33 nan nan nan nan nan nan nan nan nan nan nan 40 40 40 41 43 46 44 39 39 39 35 34 34
nan nan nan nan nan nan 40 40 nan nan nan nan nan 28 26 25 23 24 nan nan 19 18 20 21 18 18 21 22 21 22 22 20 18 16 14 nan nan nan nan nan nan nan nan nan nan nan nan nan nan nan nan nan nan nan nan nan 22 21 25 28 30 29 nan nan nan nan nan nan nan nan nan 43 44 45 43 41 42 40 40 39 43 38 36 35 37
nan 43 41 40 nan 39 39 37 36 nan nan nan nan 27 25 23 22 nan nan nan nan nan nan nan nan nan nan 20 21 24 24 23 20 17 16 14 11 12 nan nan nan nan nan nan nan nan nan nan nan nan nan nan nan nan nan nan nan nan 29 31 31 26 32 nan nan nan nan nan nan nan 38 43 44 42 44 44 42 39 39 41 43 40 38 38 38
nan 41 39 39 37 36 36 37 35 nan nan nan 27 25 24 nan nan nan nan nan nan nan nan nan nan nan nan nan nan 21 25 24 22 20 17 16 13 12 9 nan nan nan nan nan nan nan nan nan nan nan nan nan nan nan nan nan nan nan nan nan nan nan nan 37 39 39 nan nan nan 40 38 39 39 40 42 44 44 42 40 41 43 43 42 41 40
40 38 37 37 36 35 35 36 nan nan 32 30 26 nan nan nan nan nan nan nan nan nan nan nan nan nan nan nan nan nan 19 22 23 20 19 18 13 13 9 7 12 13 nan nan nan nan nan nan nan nan nan nan nan nan nan nan nan nan nan nan nan nan nan 35 nan 40 45 nan 45 44 41 40 42 43 45 44 43 41 39 41 44 43 43 44 45
38 36 35 35 35 36 36 36 36 36 32 29 nan nan nan nan nan nan nan nan nan nan nan nan nan nan nan nan nan nan nan 19 21 20 18 17 14 10 10 7 2 7 13 nan nan nan nan nan nan nan nan nan nan nan nan nan nan nan nan nan nan nan nan nan nan nan nan nan nan nan 42 42 nan 44 44 42 41 41 39 40 44 43 43 44 46
nan 35 35 35 36 37 37 36 nan nan nan nan nan nan nan nan nan nan nan nan nan nan nan nan nan nan nan nan nan nan nan nan nan 18 18 15 13 10 6 4 2 3 6 11 14 15 nan nan nan nan nan nan nan nan nan nan nan nan nan nan nan nan nan nan nan nan nan nan nan nan nan nan nan 45 44 44 43 42 40 41 44 43 40 42 45
39 36 35 36 37 37 36 36 nan nan nan nan nan nan nan nan nan nan nan nan nan nan nan nan nan nan nan nan nan nan nan nan 16 17 nan nan nan 11 6 4 1 1 2 6 10 14 12 8 nan nan nan nan nan nan nan nan nan nan nan nan nan nan nan nan nan nan nan nan nan nan nan nan nan nan 45 44 nan nan nan nan nan nan 45 nan 52
37 35 35 36 36 36 35 nan nan nan nan nan nan nan nan nan nan nan nan nan nan nan nan nan nan nan nan nan nan nan nan nan nan nan nan nan nan nan 7 7 5 2 2 2 1 5 8 8 10 nan nan nan nan nan nan nan nan nan nan nan nan nan nan nan nan nan nan nan nan nan nan nan nan nan nan nan nan nan nan nan nan 42 44 48 51
36 34 33 34 34 35 35 nan nan nan nan nan nan nan nan nan nan nan nan nan nan nan nan nan nan nan nan nan nan nan nan nan nan nan nan nan nan nan nan nan 9 7 5 3 4 7 9 11 11 11 nan nan nan nan nan nan nan nan nan nan nan nan nan nan nan nan nan nan nan nan nan nan nan nan nan nan nan nan nan nan nan 44 45 46 48
33 30 30 32 32 33 33 35 35 nan nan nan nan nan nan nan nan nan nan nan nan nan nan nan nan nan nan nan nan nan nan nan nan nan nan nan nan nan nan nan nan nan nan nan 2 4 6 nan nan nan nan nan nan nan nan nan nan nan nan nan nan nan nan nan nan nan nan nan nan nan nan nan nan nan nan nan nan nan nan nan nan nan 46 40 41
31 28 29 31 30 30 30 29 30 30 25 nan nan nan nan nan nan nan nan nan nan nan nan nan nan nan nan nan nan nan nan nan nan nan nan nan nan nan nan nan nan nan nan nan nan nan nan nan nan nan nan nan nan nan nan nan nan nan nan nan nan nan nan nan nan nan nan nan nan nan nan nan nan nan nan nan nan nan nan nan nan 49 48 45 43
nan nan nan 30 30 28 27 nan nan nan nan nan nan nan 24 nan nan nan nan nan nan nan nan nan nan nan nan nan nan nan nan nan nan nan nan nan nan nan nan nan nan nan nan nan nan nan nan nan nan nan nan nan nan nan nan nan nan nan nan nan nan nan nan nan nan nan nan nan nan nan nan nan nan nan nan nan nan nan nan nan nan nan nan 45 45
29 27 27 nan 30 30 30 nan nan nan nan nan nan nan nan nan nan nan nan nan nan nan nan nan nan nan nan nan nan nan nan nan nan nan nan nan nan nan nan nan nan nan nan nan nan nan nan nan nan nan nan nan nan nan nan nan nan nan nan nan nan nan nan nan nan nan nan nan nan nan nan nan nan nan nan nan nan nan nan nan nan nan nan nan nan
nan nan nan nan 28 28 29 nan nan nan nan nan nan nan nan nan nan nan nan nan nan nan nan nan nan nan nan nan nan nan nan nan nan nan nan nan nan nan nan nan nan nan nan nan nan nan nan nan nan nan nan nan nan nan nan nan nan nan nan nan nan nan nan nan nan nan nan nan nan nan nan nan nan nan nan nan nan nan nan nan nan nan nan nan nan
29 26 26 26 26 25 26 28 30 nan nan nan nan nan nan nan nan nan nan nan nan nan nan nan nan nan nan nan nan nan nan nan nan nan nan nan nan nan nan nan nan nan nan nan nan nan nan nan nan nan nan nan nan nan nan nan nan nan nan nan nan nan nan nan nan nan nan nan nan nan nan nan nan nan nan nan nan nan nan nan nan nan nan nan nan
31 29 26 24 24 24 24 23 24 27 nan nan nan nan 29 nan nan nan nan nan nan nan nan nan nan nan nan nan nan nan nan nan nan nan nan nan nan nan nan nan nan nan nan nan nan nan nan nan nan nan nan nan nan nan nan nan nan nan nan nan nan nan nan nan nan nan nan nan nan nan nan nan nan nan nan nan nan nan nan nan nan nan nan nan nan
nan 30 28 27 25 24 20 19 22 26 nan nan nan 30 31 nan nan nan nan nan nan nan nan nan nan nan nan nan nan nan nan nan nan nan nan nan nan nan nan nan nan nan nan nan nan nan nan nan nan nan nan nan nan nan nan nan nan nan nan nan nan nan nan nan nan 34 nan nan nan nan nan nan nan nan nan nan nan nan nan nan nan nan nan nan nan
nan nan 31 29 29 nan 27 27 26 nan nan nan nan nan nan nan nan nan nan nan nan nan nan nan nan nan nan nan nan nan nan nan nan nan nan nan nan nan nan nan nan nan nan nan nan nan nan nan nan nan nan nan nan nan nan nan nan nan nan nan nan nan nan nan 33 34 nan nan nan nan nan nan nan nan nan nan nan nan nan nan nan nan nan nan nan
36 nan nan nan 30 31 nan nan nan nan nan 28 31 nan nan nan nan nan nan nan nan nan nan nan nan nan nan nan nan nan nan nan nan nan nan nan nan nan nan nan nan nan nan nan nan nan nan nan nan nan nan nan nan nan nan nan nan nan nan nan nan nan 25 27 nan 29 30 31 nan nan nan 36 36 35 nan nan nan nan nan nan nan nan nan nan nan
30 26 nan nan nan nan nan nan nan nan nan nan nan nan nan nan nan nan nan nan nan nan nan nan nan nan nan nan nan nan nan nan nan nan nan nan nan nan nan nan nan nan nan nan nan nan nan nan nan nan nan nan nan nan nan nan nan nan nan nan nan nan nan 26 28 27 27 27 27 27 27 nan 31 nan nan nan nan nan nan nan nan nan nan nan nan
nan nan nan nan nan nan nan nan nan nan nan nan nan nan nan nan nan nan nan nan nan nan nan nan nan nan nan nan nan nan nan nan nan nan nan nan nan nan nan nan nan nan nan nan nan nan nan nan nan nan nan nan nan nan nan nan nan nan nan nan nan nan nan nan nan nan nan nan 25 25 26 27 nan nan nan nan nan 29 28 28 nan nan nan nan nan
nan 29 nan nan nan nan nan 29 nan nan nan nan nan nan nan nan nan nan nan nan nan nan nan nan nan nan nan nan nan nan nan nan nan nan nan nan nan nan nan nan nan nan nan nan nan nan nan nan nan nan nan nan nan nan nan nan nan nan nan nan nan nan nan nan nan nan nan nan nan 26 28 28 27 26 nan nan nan 28 28 28 28 nan nan nan nan
nan nan 32 29 nan 29 29 nan nan nan nan nan nan nan nan nan nan nan nan nan nan nan nan nan nan nan nan nan nan nan nan nan nan nan nan nan nan nan nan nan nan nan nan nan nan nan nan nan nan nan nan nan nan nan nan nan nan nan nan nan nan nan nan nan nan nan nan nan nan nan nan nan nan nan nan nan nan nan 28 30 30 31 30 29 nan
nan 33 nan 30 29 30 nan nan nan nan nan nan nan nan nan nan nan nan nan nan nan nan nan nan nan nan nan nan nan nan nan nan nan nan nan nan nan nan nan nan nan nan nan nan nan nan nan nan nan nan nan nan nan nan nan nan nan nan nan nan nan nan nan nan nan nan nan nan nan nan nan nan nan nan nan nan nan nan nan nan nan nan 33 35 35
nan nan nan nan 28 28 nan nan nan nan nan nan nan nan nan nan nan nan nan nan nan nan nan nan nan nan nan nan nan nan nan nan nan nan nan nan nan nan nan nan nan nan nan nan nan nan nan nan nan nan nan nan nan nan nan nan nan nan nan nan nan nan nan nan nan nan nan nan nan nan nan nan nan nan nan nan nan nan nan nan nan nan nan nan nan
33 32 30 28 nan nan nan nan nan nan nan nan nan nan nan nan nan nan nan nan nan nan nan nan nan nan nan nan nan nan nan nan nan nan nan nan nan nan nan nan nan nan nan nan nan nan nan nan nan nan nan nan nan nan nan nan nan nan nan nan nan nan nan nan nan nan nan nan nan nan nan nan nan nan nan nan nan nan nan nan nan nan nan nan nan
29 27 nan 29 nan nan nan nan nan nan nan nan nan nan nan nan nan nan nan nan nan nan nan nan nan nan nan nan nan nan nan nan nan nan nan nan nan nan nan nan nan nan nan nan nan nan nan nan nan nan nan nan nan nan nan nan nan nan nan nan nan nan nan nan nan nan nan nan nan nan nan nan nan nan nan nan nan nan nan nan nan nan nan nan nan
nan nan nan nan nan nan nan nan nan nan nan nan nan nan nan nan nan nan nan nan nan nan nan nan nan nan nan nan nan nan nan nan nan nan nan nan nan nan nan nan nan nan nan nan nan nan nan nan nan nan nan nan nan nan nan nan nan nan nan nan nan nan nan nan nan nan nan nan nan nan nan nan nan nan nan nan nan nan nan nan nan nan nan nan nan
nan nan nan nan nan nan nan nan nan nan nan nan nan nan nan nan nan nan nan nan nan nan nan nan nan nan nan nan nan nan nan nan nan nan nan nan nan nan nan nan nan nan nan nan nan nan nan nan nan nan nan nan nan nan nan nan nan nan nan nan nan nan nan nan nan nan nan nan nan nan nan nan nan nan nan nan nan nan nan nan nan nan nan nan nan
nan nan nan nan nan nan nan nan nan nan nan nan nan nan nan nan nan nan nan nan nan nan nan nan nan nan nan nan nan nan nan nan nan nan nan nan nan nan nan nan nan nan nan nan nan nan nan nan nan nan nan nan nan nan nan nan nan nan nan nan nan nan nan nan nan nan nan nan nan nan nan nan nan nan nan nan nan nan nan nan nan nan nan nan nan
nan nan nan nan nan nan nan nan nan nan nan nan nan nan nan nan nan nan nan nan nan nan nan nan nan nan nan nan nan nan nan nan nan nan nan nan nan nan nan nan nan nan nan nan nan nan nan nan nan nan nan nan nan nan nan nan nan nan nan nan nan nan nan nan nan nan nan nan nan nan nan nan nan nan nan nan nan nan nan nan nan nan nan nan nan
nan nan nan nan nan nan nan nan nan nan nan nan nan nan nan nan nan nan nan nan nan nan nan nan nan nan nan nan nan nan nan nan nan nan nan nan nan nan nan nan nan nan nan nan nan nan nan nan nan nan nan nan nan nan nan nan nan nan nan nan nan nan nan nan nan nan nan nan nan nan nan nan nan nan nan nan nan nan nan nan nan nan nan nan nan
nan nan nan nan nan nan nan nan nan nan nan nan nan nan nan nan nan nan nan nan nan nan nan nan nan nan nan nan nan nan nan nan nan nan nan nan nan nan nan nan nan nan nan nan nan nan nan nan nan nan nan nan nan nan nan nan nan nan nan nan nan nan nan nan nan nan nan nan nan nan nan nan nan nan nan nan nan nan nan nan nan nan nan nan nan
Wind_Direction
nan nan nan nan nan nan nan nan nan nan nan nan nan nan nan nan nan nan 316 315 313 311 308 305 301 298 294 290 286 281 278 273 271 268 260 253 248 244 241 243 242 243 245 246 250 250 251 252 251 248 250 250 245 242 243 245 244 242 240 238 236 236 238 239 235 225 231 242 239 242 246 242 237 239 238 239 241 245 248 249 251 253 254 255 257
nan nan nan nan nan nan nan nan nan nan nan nan nan nan nan nan nan nan nan 318 316 315 311 308 303 301 299 296 292 286 280 275 269 267 260 253 249 248 244 241 239 241 242 241 246 248 248 248 248 247 248 248 245 243 245 247 246 244 242 241 237 236 239 238 235 228 225 240 238 240 241 244 234 240 240 240 240 241 244 246 248 251 254 255 256
nan nan nan nan nan nan nan nan nan nan nan nan nan nan nan nan nan nan 320 319 318 317 314 311 309 307 305 303 299 292 284 274 268 265 261 252 245 245 244 242 241 240 241 240 240 243 245 246 247 248 247 247 244 242 243 247 248 246 244 243 239 237 238 239 234 229 227 233 238 235 240 242 239 234 237 237 238 242 242 245 250 252 255 257 257
nan nan nan nan nan nan nan nan nan nan nan nan nan nan nan nan nan nan 321 320 320 318 317 317 315 313 309 305 301 294 283 276 267 263 258 251 244 241 241 242 242 242 241 239 238 239 243 243 246 249 250 248 244 241 241 245 248 247 245 243 241 239 238 237 235 230 228 229 239 239 240 240 237 235 237 237 241 243 244 245 248 251 254 256 258
nan nan nan nan nan nan nan nan nan nan nan nan nan nan nan nan nan 322 321 322 323 319 317 318 319 317 312 307 299 292 283 270 265 261 258 257 246 237 236 238 239 237 237 240 238 238 241 244 245 248 250 247 243 242 243 246 248 248 245 244 243 242 239 238 234 231 227 228 235 241 241 240 239 241 244 243 241 241 243 245 248 250 251 254 255
nan nan nan nan nan nan nan nan nan nan nan nan nan nan nan nan nan nan 325 328 326 323 322 320 320 320 316 309 301 295 286 275 266 267 273 265 250 239 234 232 238 237 232 231 238 240 241 241 242 242 246 248 244 242 245 248 249 249 248 247 nan 245 242 239 236 232 226 224 232 237 244 241 240 242 245 245 244 243 242 243 244 247 250 250 253
nan nan nan nan nan nan nan nan nan nan nan nan 324 324 nan 320 322 326 326 330 330 328 324 323 324 321 316 312 308 299 291 281 273 276 280 nan nan nan 235 231 233 236 239 238 234 236 236 235 233 238 243 244 242 241 243 245 246 249 249 nan nan nan nan nan 237 232 226 223 228 236 239 242 243 241 244 244 243 244 246 245 242 248 250 251 249
nan nan nan nan nan nan nan nan nan nan nan nan 326 328 324 322 325 326 327 331 332 332 330 327 326 321 317 319 323 318 305 288 279 275 279 nan nan nan nan nan nan nan 232 231 230 233 235 235 nan 235 238 240 239 239 241 242 244 245 246 246 nan nan nan nan nan nan nan nan 225 231 238 241 243 240 242 247 247 243 245 244 241 245 250 251 252
nan nan nan nan nan nan nan nan nan nan nan nan nan 329 nan nan 324 324 326 330 331 333 333 329 327 324 318 314 317 321 315 297 280 270 266 nan nan nan nan nan nan nan nan nan 230 229 229 234 237 239 241 241 243 240 239 242 243 245 246 248 247 nan nan nan nan nan nan nan nan nan 233 240 244 245 248 251 254 250 246 246 239 240 245 245 247
nan nan nan nan nan nan nan nan nan nan nan nan nan nan nan nan nan 321 322 325 328 331 332 329 325 326 323 314 309 309 308 300 289 278 271 nan nan nan nan nan nan nan nan nan nan nan 228 230 233 241 244 246 nan nan nan nan nan 246 248 251 251 248 nan nan nan nan nan nan nan nan nan 236 243 247 248 250 245 241 243 246 242 241 243 242 236
nan nan nan nan nan nan nan nan nan nan nan nan nan nan nan nan nan 319 317 318 322 325 327 328 326 324 324 320 312 305 301 299 301 287 276 nan nan nan nan nan nan nan nan nan nan nan nan 229 233 235 241 243 nan nan nan nan nan nan 255 258 256 252 250 nan nan nan 228 nan nan nan nan 231 238 244 246 246 245 246 244 243 240 239 241 242 235
nan nan nan nan nan nan nan nan nan nan nan nan nan nan nan nan 317 314 312 312 315 318 322 326 327 325 323 320 315 307 296 295 297 288 275 nan nan nan nan nan nan nan nan nan nan nan nan nan 234 237 240 244 244 nan nan nan nan nan nan 254 254 257 nan 256 nan 238 nan nan nan nan nan nan 233 240 243 246 247 246 243 242 241 240 241 243 240
nan nan nan nan nan nan nan nan nan nan nan nan nan nan nan nan 314 310 309 309 310 315 319 321 325 325 325 322 315 304 290 292 305 291 275 nan nan nan nan nan nan nan nan 227 nan nan nan nan 233 237 239 nan 244 244 244 nan nan nan nan nan nan nan nan nan nan nan nan nan nan 224 226 227 229 235 243 246 246 246 244 241 240 240 240 241 241
nan nan nan nan nan nan nan nan nan nan nan nan nan nan nan 313 312 310 307 306 309 314 315 319 323 324 327 325 314 299 284 285 299 297 nan nan nan nan nan nan nan nan nan nan 229 nan 243 242 240 240 241 243 247 248 247 250 251 nan nan nan nan nan nan nan nan nan nan nan nan nan nan 227 228 234 242 246 249 248 247 242 241 239 239 241 242
nan nan nan nan nan nan nan nan nan nan nan nan nan nan nan nan 308 306 305 306 308 310 311 313 319 322 327 326 313 297 282 274 nan 305 nan nan nan nan nan nan nan nan nan nan 233 236 233 229 224 223 227 235 241 246 245 244 245 249 nan nan nan nan nan nan nan nan nan nan nan nan nan nan 226 234 242 247 249 248 249 246 244 240 235 234 235
nan nan nan nan nan nan nan nan nan nan nan nan nan nan nan 304 304 302 302 303 306 nan nan 314 319 320 324 325 315 305 291 282 nan 306 302 nan nan nan nan nan nan nan nan nan 234 238 234 nan nan nan nan nan nan nan nan nan 238 246 nan nan nan nan nan nan nan nan nan nan nan nan nan 222 228 235 241 245 244 244 244 241 238 237 236 nan 238
nan nan nan nan nan nan nan nan nan nan nan nan nan nan 302 300 300 300 300 302 303 nan nan nan 315 319 322 324 322 313 304 296 290 299 305 nan nan nan nan nan nan nan nan nan nan nan nan nan nan nan nan nan nan nan nan nan 244 250 256 nan nan nan nan nan nan nan nan nan nan nan nan nan 234 239 244 249 246 246 245 245 243 243 240 238 238
nan nan nan nan nan nan nan nan nan nan nan nan nan nan 306 306 304 299 298 298 301 304 nan 305 312 317 318 323 324 318 313 307 302 302 296 nan nan nan nan nan nan nan nan nan nan nan nan nan nan nan nan nan nan nan nan 241 247 253 256 255 249 nan nan nan nan nan nan nan nan nan nan nan 238 243 247 250 252 251 249 247 245 246 242 241 241
nan nan nan nan nan nan 318 321 nan nan nan nan nan 309 308 305 300 294 nan nan 310 306 304 305 309 310 314 318 324 324 318 315 315 309 296 nan nan nan nan nan nan nan nan nan nan nan nan nan nan nan nan nan nan nan nan nan 238 242 252 254 243 236 nan nan nan nan nan nan nan nan nan 235 238 238 241 250 254 254 249 246 247 249 244 243 243
nan 320 319 316 nan 315 318 321 321 nan nan nan nan 312 309 304 298 nan nan nan nan nan nan nan nan nan nan 308 316 322 322 321 322 317 306 298 286 267 nan nan nan nan nan nan nan nan nan nan nan nan nan nan nan nan nan nan nan nan 236 242 241 236 234 nan nan nan nan nan nan nan 233 236 236 236 238 242 245 247 245 243 246 249 247 246 245
nan 319 316 314 313 315 318 322 323 nan nan nan 312 310 307 nan nan nan nan nan nan nan nan nan nan nan nan nan nan 320 323 323 325 327 321 309 303 303 284 nan nan nan nan nan nan nan nan nan nan nan nan nan nan nan nan nan nan nan nan nan nan nan nan 233 236 241 nan nan nan 235 235 237 238 236 236 239 242 241 240 242 245 246 246 247 249
317 315 313 312 313 315 319 320 nan nan 315 312 311 nan nan nan nan nan nan nan nan nan nan nan nan nan nan nan nan nan 321 325 326 331 330 320 311 319 324 263 238 239 nan nan nan nan nan nan nan nan nan nan nan nan nan nan nan nan nan nan nan nan nan 229 nan 234 233 nan 236 238 239 241 241 240 238 238 239 239 241 241 241 242 243 247 250
316 312 309 309 312 315 317 319 318 317 313 310 nan nan nan nan nan nan nan nan nan nan nan nan nan nan nan nan nan nan nan 319 329 333 337 332 325 324 339 337 260 249 244 nan nan nan nan nan nan nan nan nan nan nan nan nan nan nan nan nan nan nan nan nan nan nan nan nan nan nan 243 245 nan 244 243 241 239 237 237 241 242 242 244 246 247
nan 308 306 308 310 313 315 316 nan nan nan nan nan nan nan nan nan nan nan nan nan nan nan nan nan nan nan nan nan nan nan nan nan 326 331 334 335 329 322 334 350 305 255 249 249 247 nan nan nan nan nan nan nan nan nan nan nan nan nan nan nan nan nan nan nan nan nan nan nan nan nan nan nan 244 240 238 239 242 240 244 246 246 245 246 247
309 306 306 308 309 312 313 313 nan nan nan nan nan nan nan nan nan nan nan nan nan nan nan nan nan nan nan nan nan nan nan nan 308 312 nan nan nan 316 299 289 281 298 281 264 251 251 249 215 nan nan nan nan nan nan nan nan nan nan nan nan nan nan nan nan nan nan nan nan nan nan nan nan nan nan 241 238 nan nan nan nan nan nan 243 nan 245
308 308 307 307 310 311 311 nan nan nan nan nan nan nan nan nan nan nan nan nan nan nan nan nan nan nan nan nan nan nan nan nan nan nan nan nan nan nan 296 291 306 338 22 356 231 230 241 231 214 nan nan nan nan nan nan nan nan nan nan nan nan nan nan nan nan nan nan nan nan nan nan nan nan nan nan nan nan nan nan nan nan 245 251 251 251
311 308 306 307 309 309 310 nan nan nan nan nan nan nan nan nan nan nan nan nan nan nan nan nan nan nan nan nan nan nan nan nan nan nan nan nan nan nan nan nan 282 279 282 255 197 208 231 245 236 219 nan nan nan nan nan nan nan nan nan nan nan nan nan nan nan nan nan nan nan nan nan nan nan nan nan nan nan nan nan nan nan 243 245 243 246
313 309 307 306 310 312 313 309 300 nan nan nan nan nan nan nan nan nan nan nan nan nan nan nan nan nan nan nan nan nan nan nan nan nan nan nan nan nan nan nan nan nan nan nan 245 181 203 nan nan nan nan nan nan nan nan nan nan nan nan nan nan nan nan nan nan nan nan nan nan nan nan nan nan nan nan nan nan nan nan nan nan nan 246 244 241
308 307 306 306 309 311 315 308 301 297 299 nan nan nan nan nan nan nan nan nan nan nan nan nan nan nan nan nan nan nan nan nan nan nan nan nan nan nan nan nan nan nan nan nan nan nan nan nan nan nan nan nan nan nan nan nan nan nan nan nan nan nan nan nan nan nan nan nan nan nan nan nan nan nan nan nan nan nan nan nan nan 243 238 232 231
nan nan nan 304 305 307 310 nan nan nan nan nan nan nan 291 nan nan nan nan nan nan nan nan nan nan nan nan nan nan nan nan nan nan nan nan nan nan nan nan nan nan nan nan nan nan nan nan nan nan nan nan nan nan nan nan nan nan nan nan nan nan nan nan nan nan nan nan nan nan nan nan nan nan nan nan nan nan nan nan nan nan nan nan 231 230
298 297 296 nan 301 304 307 nan nan nan nan nan nan nan nan nan nan nan nan nan nan nan nan nan nan nan nan nan nan nan nan nan nan nan nan nan nan nan nan nan nan nan nan nan nan nan nan nan nan nan nan nan nan nan nan nan nan nan nan nan nan nan nan nan nan nan nan nan nan nan nan nan nan nan nan nan nan nan nan nan nan nan nan nan nan
nan nan nan nan 294 298 305 nan nan nan nan nan nan nan nan nan nan nan nan nan nan nan nan nan nan nan nan nan nan nan nan nan nan nan nan nan nan nan nan nan nan nan nan nan nan nan nan nan nan nan nan nan nan nan nan nan nan nan nan nan nan nan nan nan nan nan nan nan nan nan nan nan nan nan nan nan nan nan nan nan nan nan nan nan nan
293 290 290 289 290 295 299 296 286 nan nan nan nan nan nan nan nan nan nan nan nan nan nan nan nan nan nan nan nan nan nan nan nan nan nan nan nan nan nan nan nan nan nan nan nan nan nan nan nan nan nan nan nan nan nan nan nan nan nan nan nan nan nan nan nan nan nan nan nan nan nan nan nan nan nan nan nan nan nan nan nan nan nan nan nan
294 293 292 288 287 291 291 284 279 280 nan nan nan nan 285 nan nan nan nan nan nan nan nan nan nan nan nan nan nan nan nan nan nan nan nan nan nan nan nan nan nan nan nan nan nan nan nan nan nan nan nan nan nan nan nan nan nan nan nan nan nan nan nan nan nan nan nan nan nan nan nan nan nan nan nan nan nan nan nan nan nan nan nan nan nan
nan 289 281 278 284 288 287 282 280 279 nan nan nan 283 283 nan nan nan nan nan nan nan nan nan nan nan nan nan nan nan nan nan nan nan nan nan nan nan nan nan nan nan nan nan nan nan nan nan nan nan nan nan nan nan nan nan nan nan nan nan nan nan nan nan nan 232 nan nan nan nan nan nan nan nan nan nan nan nan nan nan nan nan nan nan nan
nan nan 282 280 282 nan 276 272 268 nan nan nan nan nan nan nan nan nan nan nan nan nan nan nan nan nan nan nan nan nan nan nan nan nan nan nan nan nan nan nan nan nan nan nan nan nan nan nan nan nan nan nan nan nan nan nan nan nan nan nan nan nan nan nan 228 227 nan nan nan nan nan nan nan nan nan nan nan nan nan nan nan nan nan nan nan
293 nan nan nan 281 278 nan nan nan nan nan 276 281 nan nan nan nan nan nan nan nan nan nan nan nan nan nan nan nan nan nan nan nan nan nan nan nan nan nan nan nan nan nan nan nan nan nan nan nan nan nan nan nan nan nan nan nan nan nan nan nan nan 246 241 nan 233 232 230 nan nan nan 229 233 239 nan nan nan nan nan nan nan nan nan nan nan
292 276 nan nan nan nan nan nan nan nan nan nan nan nan nan nan nan nan nan nan nan nan nan nan nan nan nan nan nan nan nan nan nan nan nan nan nan nan nan nan nan nan nan nan nan nan nan nan nan nan nan nan nan nan nan nan nan nan nan nan nan nan nan 256 248 246 242 239 235 231 234 nan 230 nan nan nan nan nan nan nan nan nan nan nan nan
nan nan nan nan nan nan nan nan nan nan nan nan nan nan nan nan nan nan nan nan nan nan nan nan nan nan nan nan nan nan nan nan nan nan nan nan nan nan nan nan nan nan nan nan nan nan nan nan nan nan nan nan nan nan nan nan nan nan nan nan nan nan nan nan nan nan nan nan 249 246 243 238 nan nan nan nan nan 221 227 230 nan nan nan nan nan
nan 278 nan nan nan nan nan 276 nan nan nan nan nan nan nan nan nan nan nan nan nan nan nan nan nan nan nan nan nan nan nan nan nan nan nan nan nan nan nan nan nan nan nan nan nan nan nan nan nan nan nan nan nan nan nan nan nan nan nan nan nan nan nan nan nan nan nan nan nan 255 251 246 244 247 nan nan nan 226 227 230 231 nan nan nan nan
nan nan 275 273 nan 272 271 nan nan nan nan nan nan nan nan nan nan nan nan nan nan nan nan nan nan nan nan nan nan nan nan nan nan nan nan nan nan nan nan nan nan nan nan nan nan nan nan nan nan nan nan nan nan nan nan nan nan nan nan nan nan nan nan nan nan nan nan nan nan nan nan nan nan nan nan nan nan nan 247 243 244 244 243 242 nan
nan 278 nan 271 269 267 nan nan nan nan nan nan nan nan nan nan nan nan nan nan nan nan nan nan nan nan nan nan nan nan nan nan nan nan nan nan nan nan nan nan nan nan nan nan nan nan nan nan nan nan nan nan nan nan nan nan nan nan nan nan nan nan nan nan nan nan nan nan nan nan nan nan nan nan nan nan nan nan nan nan nan nan 252 250 248
nan nan nan nan 268 266 nan nan nan nan nan nan nan nan nan nan nan nan nan nan nan nan nan nan nan nan nan nan nan nan nan nan nan nan nan nan nan nan nan nan nan nan nan nan nan nan nan nan nan nan nan nan nan nan nan nan nan nan nan nan nan nan nan nan nan nan nan nan nan nan nan nan nan nan nan nan nan nan nan nan nan nan nan nan nan
277 276 274 271 nan nan nan nan nan nan nan nan nan nan nan nan nan nan nan nan nan nan nan nan nan nan nan nan nan nan nan nan nan nan nan nan nan nan nan nan nan nan nan nan nan nan nan nan nan nan nan nan nan nan nan nan nan nan nan nan nan nan nan nan nan nan nan nan nan nan nan nan nan nan nan nan nan nan nan nan nan nan nan nan nan
278 275 nan 272 nan nan nan nan nan nan nan nan nan nan nan nan nan nan nan nan nan nan nan nan nan nan nan nan nan nan nan nan nan nan nan nan nan nan nan nan nan nan nan nan nan nan nan nan nan nan nan nan nan nan nan nan nan nan nan nan nan nan nan nan nan nan nan nan nan nan nan nan nan nan nan nan nan nan nan nan nan nan nan nan nan
nan nan nan nan nan nan nan nan nan nan nan nan nan nan nan nan nan nan nan nan nan nan nan nan nan nan nan nan nan nan nan nan nan nan nan nan nan nan nan nan nan nan nan nan nan nan nan nan nan nan nan nan nan nan nan nan nan nan nan nan nan nan nan nan nan nan nan nan nan nan nan nan nan nan nan nan nan nan nan nan nan nan nan nan nan
nan nan nan nan nan nan nan nan nan nan nan nan nan nan nan nan nan nan nan nan nan nan nan nan nan nan nan nan nan nan nan nan nan nan nan nan nan nan nan nan nan nan nan nan nan nan nan nan nan nan nan nan nan nan nan nan nan nan nan nan nan nan nan nan nan nan nan nan nan nan nan nan nan nan nan nan nan nan nan nan nan nan nan nan nan
nan nan nan nan nan nan nan nan nan nan nan nan nan nan nan nan nan nan nan nan nan nan nan nan nan nan nan nan nan nan nan nan nan nan nan nan nan nan nan nan nan nan nan nan nan nan nan nan nan nan nan nan nan nan nan nan nan nan nan nan nan nan nan nan nan nan nan nan nan nan nan nan nan nan nan nan nan nan nan nan nan nan nan nan nan
nan nan nan nan nan nan nan nan nan nan nan nan nan nan nan nan nan nan nan nan nan nan nan nan nan nan nan nan nan nan nan nan nan nan nan nan nan nan nan nan nan nan nan nan nan nan nan nan nan nan nan nan nan nan nan nan nan nan nan nan nan nan nan nan nan nan nan nan nan nan nan nan nan nan nan nan nan nan nan nan nan nan nan nan nan
nan nan nan nan nan nan nan nan nan nan nan nan nan nan nan nan nan nan nan nan nan nan nan nan nan nan nan nan nan nan nan nan nan nan nan nan nan nan nan nan nan nan nan nan nan nan nan nan nan nan nan nan nan nan nan nan nan nan nan nan nan nan nan nan nan nan nan nan nan nan nan nan nan nan nan nan nan nan nan nan nan nan nan nan nan
nan nan nan nan nan nan nan nan nan nan nan nan nan nan nan nan nan nan nan nan nan nan nan nan nan nan nan nan nan nan nan nan nan nan nan nan nan nan nan nan nan nan nan nan nan nan nan nan nan nan nan nan nan nan nan nan nan nan nan nan nan nan nan nan nan nan nan nan nan nan nan nan nan nan nan nan nan nan nan nan nan nan nan nan nan